User: anonymous
Location: Delta State University
(33.7460°N, 90.7320°W)
Time: 11:24:44
(UTC-05:00)
Language:

Iridium 13 - Orbit

View from above orbital plane
View from above orbital plane
View from above satellite
View from above satellite

Ground track
Ground track

The orbit data is extracted from the following two-line orbital elements,

1 24840U 97030E   14106.53255854  .00000211  00000-0  68423-4 0  7456
2 24840 086.3932 114.1394 0002257 099.1333 062.4747 14.34213658881013
Epoch (UTC): 16 April 2014 12:46:53
Eccentricity: 0.0002257
inclination: 86.3932°
perigee height: 776 km
apogee height: 779 km
right ascension of ascending node: 114.1394°
argument of perigee: 99.1333°
revolutions per day: 14.34213658
mean anomaly at epoch: 62.4747°
orbit number at epoch: 88101

The dashed part of the orbit path shows where the satellite is in the earth's shadow,  

DLR